Time,TemperatureF,DewpointF,PressureIn,WindDirection,WindDirectionDegrees,WindSpeedMPH,WindSpeedGustMPH,Humidity,HourlyPrecipIn,Conditions,Clouds,dailyrainin,SoftwareType,DateUTC
2013-08-30 00:01:00,77.6,71.3,29.93,WSW,257,0.0,0.0,81,0.00,,,0.00,Wunderground v.1.15,2013-08-30 04:01:00,
2013-08-30 00:03:00,77.4,71.1,29.93,WSW,257,0.0,0.0,81,0.00,,,0.00,Wunderground v.1.15,2013-08-30 04:03:00,
2013-08-30 00:05:00,77.4,71.1,29.94,WSW,257,0.0,0.0,81,0.00,,,0.00,Wunderground v.1.15,2013-08-30 04:05:00,
2013-08-30 00:06:00,77.4,71.1,29.94,WSW,257,0.0,0.0,81,0.00,,,0.00,Wunderground v.1.15,2013-08-30 04:06:00,
2013-08-30 00:12:00,77.4,71.1,29.94,WSW,257,0.0,0.0,81,0.00,,,0.00,Wunderground v.1.15,2013-08-30 04:12:00,
2013-08-30 00:17:00,77.4,71.1,29.94,WSW,257,0.0,0.0,81,0.00,,,0.00,Wunderground v.1.15,2013-08-30 04:17:00,
2013-08-30 00:22:00,77.6,70.9,29.94,WSW,257,0.0,0.0,80,0.00,,,0.00,Wunderground v.1.15,2013-08-30 04:22:00,
2013-08-30 00:26:00,77.6,70.9,29.94,WSW,257,0.0,0.0,80,0.00,,,0.00,Wunderground v.1.15,2013-08-30 04:26:00,
2013-08-30 00:30:00,77.7,71.0,29.94,WSW,257,0.0,0.0,80,0.00,,,0.00,Wunderground v.1.15,2013-08-30 04:30:00,
2013-08-30 00:36:00,77.7,71.4,29.93,WSW,257,0.0,0.0,81,0.00,,,0.00,Wunderground v.1.15,2013-08-30 04:36:00,
2013-08-30 00:41:00,77.6,71.3,29.93,WSW,257,0.0,0.0,81,0.00,,,0.00,Wunderground v.1.15,2013-08-30 04:41:00,
2013-08-30 00:47:00,77.4,71.1,29.93,WSW,257,0.0,0.0,81,0.00,,,0.00,Wunderground v.1.15,2013-08-30 04:47:00,
2013-08-30 00:52:00,77.2,71.3,29.93,WSW,257,0.0,0.0,82,0.00,,,0.00,Wunderground v.1.15,2013-08-30 04:52:00,
2013-08-30 00:58:00,77.0,71.4,29.93,WSW,257,0.0,0.0,83,0.00,,,0.00,Wunderground v.1.15,2013-08-30 04:58:00,
2013-08-30 01:03:00,76.7,71.5,29.93,WSW,257,0.0,0.0,84,0.00,,,0.00,Wunderground v.1.15,2013-08-30 05:03:00,
2013-08-30 01:09:00,76.5,71.3,29.93,WSW,257,0.0,0.0,84,0.00,,,0.00,Wunderground v.1.15,2013-08-30 05:09:00,
2013-08-30 01:14:00,76.3,71.1,29.93,WSW,257,0.0,0.0,84,0.00,,,0.00,Wunderground v.1.15,2013-08-30 05:14:00,
2013-08-30 01:19:00,76.5,70.9,29.93,WSW,257,0.0,0.0,83,0.00,,,0.00,Wunderground v.1.15,2013-08-30 05:19:00,
2013-08-30 01:25:00,76.5,70.9,29.93,WSW,257,0.0,0.0,83,0.00,,,0.00,Wunderground v.1.15,2013-08-30 05:25:00,
2013-08-30 01:30:00,76.3,71.1,29.93,WSW,257,0.0,0.0,84,0.00,,,0.00,Wunderground v.1.15,2013-08-30 05:30:00,
2013-08-30 01:36:00,76.1,70.9,29.93,WSW,257,0.0,0.0,84,0.00,,,0.00,Wunderground v.1.15,2013-08-30 05:36:00,
2013-08-30 01:41:00,76.0,70.8,29.93,WSW,257,0.0,0.0,84,0.00,,,0.00,Wunderground v.1.15,2013-08-30 05:41:00,
2013-08-30 01:47:00,75.8,71.0,29.93,WSW,257,0.0,0.0,85,0.00,,,0.00,Wunderground v.1.15,2013-08-30 05:47:00,
2013-08-30 01:52:00,75.6,70.8,29.93,WSW,257,0.0,0.0,85,0.00,,,0.00,Wunderground v.1.15,2013-08-30 05:52:00,
2013-08-30 01:58:00,75.4,70.9,29.93,WSW,257,0.0,0.0,86,0.00,,,0.00,Wunderground v.1.15,2013-08-30 05:58:00,
2013-08-30 02:03:00,75.3,71.2,29.93,WSW,257,0.0,0.0,87,0.00,,,0.00,Wunderground v.1.15,2013-08-30 06:03:00,
2013-08-30 02:08:00,74.9,71.1,29.93,WSW,257,0.0,0.0,88,0.00,,,0.00,Wunderground v.1.15,2013-08-30 06:08:00,
2013-08-30 02:14:00,74.7,70.9,29.93,WSW,257,0.0,0.0,88,0.00,,,0.00,Wunderground v.1.15,2013-08-30 06:14:00,
2013-08-30 02:20:00,74.7,70.9,29.93,WSW,257,0.0,0.0,88,0.00,,,0.00,Wunderground v.1.15,2013-08-30 06:20:00,
2013-08-30 02:25:00,74.6,70.8,29.93,WSW,257,0.0,0.0,88,0.00,,,0.00,Wunderground v.1.15,2013-08-30 06:25:00,
2013-08-30 02:30:00,74.4,70.6,29.93,WSW,257,0.0,0.0,88,0.00,,,0.00,Wunderground v.1.15,2013-08-30 06:30:00,
2013-08-30 02:36:00,74.2,70.7,29.93,WSW,257,0.0,0.0,89,0.00,,,0.00,Wunderground v.1.15,2013-08-30 06:36:00,
2013-08-30 02:42:00,74.4,70.9,29.93,WSW,257,0.0,0.0,89,0.00,,,0.00,Wunderground v.1.15,2013-08-30 06:42:00,
2013-08-30 02:47:00,74.4,70.9,29.93,WSW,257,0.0,0.0,89,0.00,,,0.00,Wunderground v.1.15,2013-08-30 06:47:00,
2013-08-30 02:53:00,74.4,70.9,29.93,WSW,257,0.0,0.0,89,0.00,,,0.00,Wunderground v.1.15,2013-08-30 06:53:00,
2013-08-30 02:59:00,74.4,70.6,29.93,WSW,257,0.0,0.0,88,0.00,,,0.00,Wunderground v.1.15,2013-08-30 06:59:00,
2013-08-30 03:05:00,74.4,70.6,29.93,WSW,257,0.0,0.0,88,0.00,,,0.00,Wunderground v.1.15,2013-08-30 07:05:00,
2013-08-30 03:10:00,74.4,70.9,29.93,WSW,257,0.0,0.0,89,0.00,,,0.00,Wunderground v.1.15,2013-08-30 07:10:00,
2013-08-30 03:15:00,74.4,70.6,29.93,WSW,257,0.0,0.0,88,0.00,,,0.00,Wunderground v.1.15,2013-08-30 07:15:00,
2013-08-30 03:21:00,74.4,70.6,29.93,WSW,257,0.0,0.0,88,0.00,,,0.00,Wunderground v.1.15,2013-08-30 07:21:00,
2013-08-30 03:26:00,74.4,70.6,29.93,WSW,257,0.0,0.0,88,0.00,,,0.00,Wunderground v.1.15,2013-08-30 07:26:00,
2013-08-30 03:32:00,74.2,70.7,29.93,WSW,257,0.0,0.0,89,0.00,,,0.00,Wunderground v.1.15,2013-08-30 07:32:00,
2013-08-30 03:37:00,74.2,70.7,29.93,WSW,257,0.0,0.0,89,0.00,,,0.00,Wunderground v.1.15,2013-08-30 07:37:00,
2013-08-30 03:43:00,74.0,70.6,29.93,WSW,257,0.0,0.0,89,0.00,,,0.00,Wunderground v.1.15,2013-08-30 07:43:00,
2013-08-30 03:48:00,74.0,70.9,29.93,WSW,257,0.0,0.0,90,0.00,,,0.00,Wunderground v.1.15,2013-08-30 07:48:00,
2013-08-30 03:54:00,73.9,70.8,29.93,WSW,257,0.0,0.0,90,0.00,,,0.00,Wunderground v.1.15,2013-08-30 07:54:00,
2013-08-30 03:59:00,73.7,70.6,29.93,WSW,257,0.0,0.0,90,0.00,,,0.00,Wunderground v.1.15,2013-08-30 07:59:00,
2013-08-30 04:05:00,73.7,70.6,29.93,WSW,257,0.0,0.0,90,0.00,,,0.00,Wunderground v.1.15,2013-08-30 08:05:00,
2013-08-30 04:10:00,73.7,70.6,29.93,WSW,257,0.0,0.0,90,0.00,,,0.00,Wunderground v.1.15,2013-08-30 08:10:00,
2013-08-30 04:16:00,73.7,70.6,29.93,WSW,257,0.0,0.0,90,0.00,,,0.00,Wunderground v.1.15,2013-08-30 08:16:00,
2013-08-30 04:21:00,73.7,70.6,29.93,WSW,257,0.0,0.0,90,0.00,,,0.00,Wunderground v.1.15,2013-08-30 08:21:00,
2013-08-30 04:27:00,73.5,70.7,29.93,WSW,257,0.0,0.0,91,0.00,,,0.00,Wunderground v.1.15,2013-08-30 08:27:00,
2013-08-30 04:32:00,73.5,70.7,29.93,WSW,257,0.0,0.0,91,0.00,,,0.00,Wunderground v.1.15,2013-08-30 08:32:00,
2013-08-30 04:38:00,73.5,70.7,29.93,WSW,257,0.0,0.0,91,0.00,,,0.00,Wunderground v.1.15,2013-08-30 08:38:00,
2013-08-30 04:43:00,73.3,70.5,29.93,WSW,257,0.0,0.0,91,0.00,,,0.00,Wunderground v.1.15,2013-08-30 08:43:00,
2013-08-30 04:49:00,73.3,70.5,29.93,WSW,257,0.0,0.0,91,0.00,,,0.00,Wunderground v.1.15,2013-08-30 08:49:00,
2013-08-30 04:54:00,73.2,70.4,29.93,WSW,257,0.0,0.0,91,0.00,,,0.00,Wunderground v.1.15,2013-08-30 08:54:00,
2013-08-30 05:00:00,73.2,70.7,29.93,WSW,257,0.0,0.0,92,0.00,,,0.00,Wunderground v.1.15,2013-08-30 09:00:00,
2013-08-30 05:05:00,73.0,70.5,29.93,WSW,257,0.0,0.0,92,0.00,,,0.00,Wunderground v.1.15,2013-08-30 09:05:00,
2013-08-30 05:11:00,73.0,70.5,29.93,WSW,257,0.0,0.0,92,0.00,,,0.00,Wunderground v.1.15,2013-08-30 09:11:00,
2013-08-30 05:16:00,73.0,70.5,29.93,WSW,257,0.0,0.0,92,0.00,,,0.00,Wunderground v.1.15,2013-08-30 09:16:00,
2013-08-30 05:22:00,73.0,70.5,29.93,WSW,257,0.0,0.0,92,0.00,,,0.00,Wunderground v.1.15,2013-08-30 09:22:00,
2013-08-30 05:27:00,73.0,70.5,29.93,WSW,257,0.0,0.0,92,0.00,,,0.00,Wunderground v.1.15,2013-08-30 09:27:00,
2013-08-30 05:33:00,73.0,70.5,29.93,WSW,257,0.0,0.0,92,0.00,,,0.00,Wunderground v.1.15,2013-08-30 09:33:00,
2013-08-30 05:38:00,73.0,70.5,29.93,WSW,257,0.0,0.0,92,0.00,,,0.00,Wunderground v.1.15,2013-08-30 09:38:00,
2013-08-30 05:44:00,72.8,70.3,29.93,WSW,257,0.0,0.0,92,0.00,,,0.00,Wunderground v.1.15,2013-08-30 09:44:00,
2013-08-30 05:49:00,72.8,70.3,29.93,WSW,257,0.0,0.0,92,0.00,,,0.00,Wunderground v.1.15,2013-08-30 09:49:00,
2013-08-30 05:55:00,72.7,70.6,29.93,WSW,257,0.0,0.0,93,0.00,,,0.00,Wunderground v.1.15,2013-08-30 09:55:00,
2013-08-30 06:00:00,72.7,70.6,29.93,WSW,257,0.0,0.0,93,0.00,,,0.00,Wunderground v.1.15,2013-08-30 10:00:00,
2013-08-30 06:05:00,72.7,70.6,29.93,WSW,257,0.0,0.0,93,0.00,,,0.00,Wunderground v.1.15,2013-08-30 10:05:00,
2013-08-30 06:11:00,72.5,70.4,29.93,WSW,257,0.0,0.0,93,0.00,,,0.00,Wunderground v.1.15,2013-08-30 10:11:00,
2013-08-30 06:17:00,72.5,70.4,29.93,WSW,257,0.0,0.0,93,0.00,,,0.00,Wunderground v.1.15,2013-08-30 10:17:00,
2013-08-30 06:22:00,72.7,70.6,29.93,WSW,257,0.0,0.0,93,0.00,,,0.00,Wunderground v.1.15,2013-08-30 10:22:00,
2013-08-30 06:27:00,72.7,70.2,29.93,WSW,257,0.0,0.0,92,0.00,,,0.00,Wunderground v.1.15,2013-08-30 10:27:00,
2013-08-30 06:33:00,72.8,70.3,29.93,WSW,257,0.0,0.0,92,0.00,,,0.00,Wunderground v.1.15,2013-08-30 10:33:00,
2013-08-30 06:38:00,73.0,70.2,29.94,WSW,257,0.0,1.0,91,0.00,,,0.00,Wunderground v.1.15,2013-08-30 10:38:00,
2013-08-30 06:44:00,73.0,70.2,29.94,WSW,257,0.0,0.0,91,0.00,,,0.00,Wunderground v.1.15,2013-08-30 10:44:00,
2013-08-30 06:49:00,73.0,70.2,29.94,WSW,257,0.0,0.0,91,0.00,,,0.00,Wunderground v.1.15,2013-08-30 10:49:00,
2013-08-30 06:55:00,73.0,70.2,29.95,West,262,0.0,0.0,91,0.00,,,0.00,Wunderground v.1.15,2013-08-30 10:55:00,
2013-08-30 07:00:00,73.0,70.2,29.95,South,185,0.0,0.0,91,0.00,,,0.00,Wunderground v.1.15,2013-08-30 11:00:00,
2013-08-30 07:06:00,73.0,70.2,29.95,South,185,0.0,0.0,91,0.00,,,0.00,Wunderground v.1.15,2013-08-30 11:06:00,
2013-08-30 07:12:00,73.2,70.1,29.95,South,185,0.0,0.0,90,0.00,,,0.00,Wunderground v.1.15,2013-08-30 11:12:00,
2013-08-30 07:18:00,73.2,70.1,29.95,South,185,0.0,1.0,90,0.00,,,0.00,Wunderground v.1.15,2013-08-30 11:18:00,
2013-08-30 07:24:00,73.2,70.1,29.95,South,185,0.0,0.0,90,0.00,,,0.00,Wunderground v.1.15,2013-08-30 11:24:00,
2013-08-30 07:29:00,73.0,70.2,29.95,South,185,0.0,0.0,91,0.00,,,0.00,Wunderground v.1.15,2013-08-30 11:29:00,
2013-08-30 07:34:00,73.0,70.2,29.95,South,185,0.0,0.0,91,0.00,,,0.00,Wunderground v.1.15,2013-08-30 11:34:00,
2013-08-30 07:40:00,73.0,70.2,29.95,South,186,0.0,0.0,91,0.00,,,0.00,Wunderground v.1.15,2013-08-30 11:40:00,
2013-08-30 07:45:00,73.0,70.5,29.95,South,186,0.0,0.0,92,0.00,,,0.00,Wunderground v.1.15,2013-08-30 11:45:00,
2013-08-30 07:51:00,72.8,70.3,29.97,South,187,0.0,0.0,92,0.00,,,0.00,Wunderground v.1.15,2013-08-30 11:51:00,
2013-08-30 07:56:00,72.8,70.3,29.97,South,187,0.0,0.0,92,0.00,,,0.00,Wunderground v.1.15,2013-08-30 11:56:00,
2013-08-30 08:02:00,72.8,70.3,29.97,South,187,0.0,0.0,92,0.00,,,0.00,Wunderground v.1.15,2013-08-30 12:02:00,
2013-08-30 08:07:00,72.8,70.3,29.97,South,187,0.0,0.0,92,0.00,,,0.00,Wunderground v.1.15,2013-08-30 12:07:00,
2013-08-30 08:13:00,73.0,70.5,29.97,South,187,0.0,0.0,92,0.00,,,0.00,Wunderground v.1.15,2013-08-30 12:13:00,
2013-08-30 08:18:00,73.2,70.7,29.97,South,187,0.0,0.0,92,0.00,,,0.00,Wunderground v.1.15,2013-08-30 12:18:00,
2013-08-30 08:23:00,73.3,70.8,29.97,South,187,0.0,0.0,92,0.00,,,0.00,Wunderground v.1.15,2013-08-30 12:23:00,
2013-08-30 08:29:00,73.5,71.0,29.97,South,187,0.0,0.0,92,0.00,,,0.00,Wunderground v.1.15,2013-08-30 12:29:00,
2013-08-30 08:34:00,73.7,70.9,29.97,South,187,0.0,0.0,91,0.00,,,0.00,Wunderground v.1.15,2013-08-30 12:34:00,
2013-08-30 08:40:00,73.9,71.1,29.97,South,187,0.0,0.0,91,0.00,,,0.00,Wunderground v.1.15,2013-08-30 12:40:00,
2013-08-30 08:45:00,74.0,71.2,29.97,South,187,0.0,0.0,91,0.00,,,0.00,Wunderground v.1.15,2013-08-30 12:45:00,
2013-08-30 08:51:00,74.2,70.7,29.97,South,187,0.0,0.0,89,0.00,,,0.00,Wunderground v.1.15,2013-08-30 12:51:00,
2013-08-30 08:56:00,74.6,71.1,29.97,South,187,0.0,0.0,89,0.00,,,0.00,Wunderground v.1.15,2013-08-30 12:56:00,
2013-08-30 09:02:00,75.1,72.0,29.97,South,187,0.0,0.0,90,0.00,,,0.00,Wunderground v.1.15,2013-08-30 13:02:00,
2013-08-30 09:08:00,76.1,71.3,29.97,South,185,0.0,1.0,85,0.00,,,0.00,Wunderground v.1.15,2013-08-30 13:08:00,
2013-08-30 09:14:00,77.2,72.0,29.97,South,185,0.0,0.0,84,0.00,,,0.00,Wunderground v.1.15,2013-08-30 13:14:00,
2013-08-30 09:20:00,77.7,71.0,29.97,South,176,0.0,0.0,80,0.00,,,0.00,Wunderground v.1.15,2013-08-30 13:20:00,
2013-08-30 09:25:00,78.1,71.8,29.97,SSE,165,0.0,0.0,81,0.00,,,0.00,Wunderground v.1.15,2013-08-30 13:25:00,
2013-08-30 09:30:00,78.3,72.0,29.97,SSE,165,0.0,0.0,81,0.00,,,0.00,Wunderground v.1.15,2013-08-30 13:30:00,
2013-08-30 09:36:00,78.1,71.4,29.97,SSE,165,0.0,1.0,80,0.00,,,0.00,Wunderground v.1.15,2013-08-30 13:36:00,
2013-08-30 09:41:00,77.9,71.2,29.97,SSE,165,0.0,0.0,80,0.00,,,0.00,Wunderground v.1.15,2013-08-30 13:41:00,
2013-08-30 09:47:00,78.3,71.6,29.97,SSE,160,0.0,1.0,80,0.00,,,0.00,Wunderground v.1.15,2013-08-30 13:47:00,
2013-08-30 09:52:00,78.1,71.4,29.97,SE,131,1.0,1.0,80,0.00,,,0.00,Wunderground v.1.15,2013-08-30 13:52:00,
2013-08-30 09:58:00,78.1,71.8,29.97,SE,127,1.0,5.0,81,0.00,,,0.00,Wunderground v.1.15,2013-08-30 13:58:00,
2013-08-30 10:03:00,78.5,72.5,29.97,East,101,2.0,3.0,82,0.00,,,0.00,Wunderground v.1.15,2013-08-30 14:03:00,
2013-08-30 10:09:00,78.1,71.8,29.97,East,98,2.0,5.0,81,0.00,,,0.00,Wunderground v.1.15,2013-08-30 14:09:00,
2013-08-30 10:14:00,77.6,72.0,29.97,East,98,2.0,4.0,83,0.00,,,0.00,Wunderground v.1.15,2013-08-30 14:14:00,
2013-08-30 10:20:00,77.7,72.1,29.98,East,98,2.0,2.0,83,0.00,,,0.00,Wunderground v.1.15,2013-08-30 14:20:00,
2013-08-30 10:25:00,77.9,72.7,29.98,East,94,1.0,3.0,84,0.00,,,0.00,Wunderground v.1.15,2013-08-30 14:25:00,
2013-08-30 10:31:00,77.9,72.3,29.98,East,89,1.0,5.0,83,0.00,,,0.00,Wunderground v.1.15,2013-08-30 14:31:00,
2013-08-30 10:36:00,78.1,72.9,29.98,East,89,1.0,5.0,84,0.00,,,0.00,Wunderground v.1.15,2013-08-30 14:36:00,
2013-08-30 10:42:00,78.6,72.6,29.98,East,89,1.0,1.0,82,0.00,,,0.00,Wunderground v.1.15,2013-08-30 14:42:00,
2013-08-30 10:47:00,78.5,72.9,29.98,East,89,1.0,2.0,83,0.00,,,0.00,Wunderground v.1.15,2013-08-30 14:47:00,
2013-08-30 10:53:00,78.8,72.5,29.97,East,89,1.0,1.0,81,0.00,,,0.00,Wunderground v.1.15,2013-08-30 14:53:00,
2013-08-30 10:58:00,79.4,73.1,29.97,East,89,1.0,3.0,81,0.00,,,0.00,Wunderground v.1.15,2013-08-30 14:58:00,
2013-08-30 11:04:00,80.1,73.7,29.97,East,89,1.0,4.0,81,0.00,,,0.00,Wunderground v.1.15,2013-08-30 15:04:00,
2013-08-30 11:09:00,79.6,72.9,29.97,ENE,68,2.0,4.0,80,0.00,,,0.00,Wunderground v.1.15,2013-08-30 15:09:00,
2013-08-30 11:15:00,79.0,72.3,29.97,ENE,69,3.0,5.0,80,0.00,,,0.00,Wunderground v.1.15,2013-08-30 15:15:00,
2013-08-30 11:20:00,78.8,73.2,29.97,NE,55,3.0,3.0,83,0.00,,,0.00,Wunderground v.1.15,2013-08-30 15:20:00,
2013-08-30 11:25:00,79.0,73.0,29.97,NE,55,4.0,7.0,82,0.00,,,0.00,Wunderground v.1.15,2013-08-30 15:25:00,
2013-08-30 11:31:00,78.8,72.1,29.97,ENE,61,4.0,5.0,80,0.00,,,0.00,Wunderground v.1.15,2013-08-30 15:31:00,
2013-08-30 11:36:00,78.1,72.2,29.97,ENE,68,4.0,5.0,82,0.00,,,0.00,Wunderground v.1.15,2013-08-30 15:36:00,
2013-08-30 11:42:00,78.1,72.9,29.97,NE,53,3.0,3.0,84,0.00,,,0.00,Wunderground v.1.15,2013-08-30 15:42:00,
2013-08-30 11:47:00,78.8,73.2,29.97,ENE,77,2.0,7.0,83,0.00,,,0.00,Wunderground v.1.15,2013-08-30 15:47:00,
2013-08-30 11:53:00,79.0,73.4,29.97,NE,46,4.0,9.0,83,0.00,,,0.00,Wunderground v.1.15,2013-08-30 15:53:00,
2013-08-30 11:58:00,78.8,73.2,29.97,ENE,58,3.0,9.0,83,0.00,,,0.00,Wunderground v.1.15,2013-08-30 15:58:00,
2013-08-30 12:04:00,78.5,73.3,29.97,NE,52,3.0,7.0,84,0.00,,,0.00,Wunderground v.1.15,2013-08-30 16:04:00,
2013-08-30 12:09:00,78.3,73.4,29.97,ENE,57,2.0,7.0,85,0.00,,,0.00,Wunderground v.1.15,2013-08-30 16:09:00,
2013-08-30 12:15:00,78.3,73.4,29.97,ENE,57,1.0,5.0,85,0.00,,,0.00,Wunderground v.1.15,2013-08-30 16:15:00,
2013-08-30 12:20:00,78.5,72.9,29.97,ENE,60,1.0,1.0,83,0.00,,,0.00,Wunderground v.1.15,2013-08-30 16:20:00,
2013-08-30 12:26:00,78.8,73.6,29.97,NE,39,2.0,7.0,84,0.00,,,0.00,Wunderground v.1.15,2013-08-30 16:26:00,
2013-08-30 12:31:00,78.5,72.9,29.97,ENE,57,3.0,3.0,83,0.00,,,0.00,Wunderground v.1.15,2013-08-30 16:31:00,
2013-08-30 12:37:00,78.5,73.3,29.97,ENE,57,1.0,3.0,84,0.00,,,0.03,Wunderground v.1.15,2013-08-30 16:37:00,
2013-08-30 12:42:00,77.6,74.1,29.97,ENE,57,0.0,1.0,89,0.27,,,0.11,Wunderground v.1.15,2013-08-30 16:42:00,
2013-08-30 12:48:00,76.7,73.9,29.97,ENE,57,0.0,1.0,91,0.07,,,0.11,Wunderground v.1.15,2013-08-30 16:48:00,
2013-08-30 12:53:00,76.7,74.5,29.98,ENE,57,0.0,0.0,93,0.05,,,0.11,Wunderground v.1.15,2013-08-30 16:53:00,
2013-08-30 12:59:00,76.7,74.8,29.98,ENE,57,0.0,0.0,94,0.00,,,0.12,Wunderground v.1.15,2013-08-30 16:59:00,
2013-08-30 13:04:00,76.8,74.9,29.98,ENE,57,0.0,1.0,94,0.00,,,0.12,Wunderground v.1.15,2013-08-30 17:04:00,
2013-08-30 13:10:00,76.7,74.8,29.97,ENE,57,0.0,0.0,94,0.00,,,0.12,Wunderground v.1.15,2013-08-30 17:10:00,
2013-08-30 13:15:00,77.2,76.0,29.97,ENE,57,0.0,0.0,96,0.00,,,0.12,Wunderground v.1.15,2013-08-30 17:15:00,
2013-08-30 13:21:00,77.9,76.7,29.96,ENE,57,0.0,2.0,96,0.00,,,0.12,Wunderground v.1.15,2013-08-30 17:21:00,
2013-08-30 13:26:00,78.1,75.9,29.96,ENE,57,1.0,4.0,93,0.00,,,0.12,Wunderground v.1.15,2013-08-30 17:26:00,
2013-08-30 13:31:00,78.5,75.7,29.96,ENE,57,1.0,1.0,91,0.00,,,0.12,Wunderground v.1.15,2013-08-30 17:31:00,
2013-08-30 13:37:00,79.0,75.8,29.96,ENE,57,1.0,4.0,90,0.00,,,0.12,Wunderground v.1.15,2013-08-30 17:37:00,
2013-08-30 13:43:00,79.6,75.7,29.96,ENE,57,2.0,2.0,88,0.00,,,0.12,Wunderground v.1.15,2013-08-30 17:43:00,
2013-08-30 13:48:00,79.8,74.5,29.96,ENE,57,2.0,3.0,84,0.00,,,0.12,Wunderground v.1.15,2013-08-30 17:48:00,
2013-08-30 13:53:00,79.9,73.2,29.95,ENE,57,1.0,4.0,80,0.00,,,0.12,Wunderground v.1.15,2013-08-30 17:53:00,
2013-08-30 13:59:00,80.5,75.6,29.95,ENE,63,1.0,6.0,85,0.00,,,0.12,Wunderground v.1.15,2013-08-30 17:59:00,
2013-08-30 14:04:00,81.1,74.0,29.95,NE,53,2.0,3.0,79,0.00,,,0.12,Wunderground v.1.15,2013-08-30 18:04:00,
2013-08-30 14:10:00,81.2,73.7,29.94,ENE,57,1.0,1.0,78,0.00,,,0.12,Wunderground v.1.15,2013-08-30 18:10:00,
2013-08-30 14:16:00,81.4,73.5,29.94,ENE,57,1.0,3.0,77,0.00,,,0.12,Wunderground v.1.15,2013-08-30 18:16:00,
2013-08-30 14:21:00,81.6,73.7,29.93,NE,56,2.0,2.0,77,0.00,,,0.12,Wunderground v.1.15,2013-08-30 18:21:00,
2013-08-30 14:26:00,81.8,74.3,29.93,East,82,3.0,6.0,78,0.00,,,0.12,Wunderground v.1.15,2013-08-30 18:26:00,
2013-08-30 14:32:00,82.2,75.8,29.93,NE,55,4.0,6.0,81,0.00,,,0.12,Wunderground v.1.15,2013-08-30 18:32:00,
2013-08-30 14:37:00,82.4,76.0,29.93,ENE,68,4.0,9.0,81,0.00,,,0.12,Wunderground v.1.15,2013-08-30 18:37:00,
2013-08-30 14:43:00,81.6,74.5,29.93,NE,46,4.0,7.0,79,0.00,,,0.12,Wunderground v.1.15,2013-08-30 18:43:00,
2013-08-30 14:48:00,80.5,73.8,29.93,East,89,3.0,7.0,80,0.00,,,0.12,Wunderground v.1.15,2013-08-30 18:48:00,
2013-08-30 14:54:00,79.6,73.6,29.93,East,82,2.0,3.0,82,0.00,,,0.12,Wunderground v.1.15,2013-08-30 18:54:00,
2013-08-30 14:59:00,79.4,74.8,29.93,East,82,1.0,3.0,86,0.00,,,0.12,Wunderground v.1.15,2013-08-30 18:59:00,
2013-08-30 15:05:00,79.0,74.8,29.95,East,99,0.0,1.0,87,0.00,,,0.12,Wunderground v.1.15,2013-08-30 19:05:00,
2013-08-30 15:10:00,77.2,72.3,29.95,WSW,239,2.0,11.0,85,2.52,,,0.18,Wunderground v.1.15,2013-08-30 19:10:00,
2013-08-30 15:15:00,73.9,70.5,29.95,WSW,257,6.0,11.0,89,0.86,,,0.36,Wunderground v.1.15,2013-08-30 19:15:00,
2013-08-30 15:21:00,72.5,70.0,29.94,WSW,251,4.0,5.0,92,0.97,,,0.46,Wunderground v.1.15,2013-08-30 19:21:00,
2013-08-30 15:26:00,72.3,70.5,29.94,WSW,251,1.0,5.0,94,0.13,,,0.47,Wunderground v.1.15,2013-08-30 19:26:00,
2013-08-30 15:32:00,72.5,71.3,29.94,WSW,251,1.0,4.0,96,0.06,,,0.47,Wunderground v.1.15,2013-08-30 19:32:00,
2013-08-30 15:37:00,72.5,71.6,29.94,WSW,251,1.0,4.0,97,0.04,,,0.47,Wunderground v.1.15,2013-08-30 19:37:00,
2013-08-30 15:42:00,72.8,71.9,29.94,WSW,251,0.0,1.0,97,0.00,,,0.47,Wunderground v.1.15,2013-08-30 19:42:00,
2013-08-30 15:48:00,73.0,72.4,29.94,WSW,251,0.0,1.0,98,0.00,,,0.47,Wunderground v.1.15,2013-08-30 19:48:00,
2013-08-30 15:53:00,73.0,72.4,29.93,WSW,251,0.0,3.0,98,0.00,,,0.47,Wunderground v.1.15,2013-08-30 19:53:00,
2013-08-30 15:59:00,72.8,71.9,29.93,WSW,251,3.0,5.0,97,0.00,,,0.47,Wunderground v.1.15,2013-08-30 19:59:00,
2013-08-30 16:04:00,72.8,71.9,29.93,WSW,251,4.0,5.0,97,0.00,,,0.47,Wunderground v.1.15,2013-08-30 20:04:00,
2013-08-30 16:10:00,72.8,71.6,29.93,WSW,251,4.0,4.0,96,0.00,,,0.47,Wunderground v.1.15,2013-08-30 20:10:00,
2013-08-30 16:15:00,73.0,71.5,29.93,WSW,251,4.0,6.0,95,0.00,,,0.47,Wunderground v.1.15,2013-08-30 20:15:00,
2013-08-30 16:20:00,73.2,71.7,29.92,WSW,251,3.0,3.0,95,0.00,,,0.47,Wunderground v.1.15,2013-08-30 20:20:00,
2013-08-30 16:26:00,73.5,72.0,29.92,WSW,251,1.0,3.0,95,0.00,,,0.47,Wunderground v.1.15,2013-08-30 20:26:00,
2013-08-30 16:31:00,74.0,72.5,29.92,WSW,251,0.0,0.0,95,0.00,,,0.47,Wunderground v.1.15,2013-08-30 20:31:00,
2013-08-30 16:37:00,74.2,72.4,29.91,WSW,251,1.0,5.0,94,0.00,,,0.47,Wunderground v.1.15,2013-08-30 20:37:00,
2013-08-30 16:42:00,74.6,72.8,29.91,WSW,251,3.0,5.0,94,0.00,,,0.47,Wunderground v.1.15,2013-08-30 20:42:00,
2013-08-30 16:47:00,75.3,73.5,29.91,WSW,251,3.0,5.0,94,0.00,,,0.47,Wunderground v.1.15,2013-08-30 20:47:00,
2013-08-30 16:53:00,76.0,73.8,29.92,WSW,251,2.0,4.0,93,0.00,,,0.47,Wunderground v.1.15,2013-08-30 20:53:00,
2013-08-30 16:58:00,76.3,73.8,29.92,WSW,251,1.0,4.0,92,0.00,,,0.47,Wunderground v.1.15,2013-08-30 20:58:00,
2013-08-30 17:04:00,76.7,74.2,29.92,WSW,251,0.0,1.0,92,0.00,,,0.47,Wunderground v.1.15,2013-08-30 21:04:00,
2013-08-30 17:09:00,76.8,74.9,29.92,WSW,251,0.0,1.0,94,0.00,,,0.47,Wunderground v.1.15,2013-08-30 21:09:00,
2013-08-30 17:15:00,76.7,74.5,29.92,WSW,251,0.0,0.0,93,0.00,,,0.47,Wunderground v.1.15,2013-08-30 21:15:00,
2013-08-30 17:20:00,76.7,74.8,29.92,WSW,251,0.0,0.0,94,0.00,,,0.47,Wunderground v.1.15,2013-08-30 21:20:00,
2013-08-30 17:26:00,76.5,74.6,29.92,WSW,251,0.0,0.0,94,0.00,,,0.47,Wunderground v.1.15,2013-08-30 21:26:00,
2013-08-30 17:31:00,76.5,75.0,29.92,WSW,251,1.0,3.0,95,0.00,,,0.47,Wunderground v.1.15,2013-08-30 21:31:00,
2013-08-30 17:36:00,76.1,74.2,29.92,WSW,251,2.0,4.0,94,0.00,,,0.47,Wunderground v.1.15,2013-08-30 21:36:00,
2013-08-30 17:42:00,76.1,73.9,29.92,WSW,251,2.0,2.0,93,0.00,,,0.47,Wunderground v.1.15,2013-08-30 21:42:00,
2013-08-30 17:47:00,76.1,74.2,29.92,WSW,251,1.0,4.0,94,0.00,,,0.47,Wunderground v.1.15,2013-08-30 21:47:00,
2013-08-30 17:53:00,76.0,74.1,29.91,WSW,251,1.0,1.0,94,0.00,,,0.47,Wunderground v.1.15,2013-08-30 21:53:00,
2013-08-30 17:58:00,76.0,74.1,29.91,WSW,251,0.0,3.0,94,0.00,,,0.47,Wunderground v.1.15,2013-08-30 21:58:00,
2013-08-30 18:04:00,76.1,73.9,29.91,WSW,251,1.0,1.0,93,0.00,,,0.47,Wunderground v.1.15,2013-08-30 22:04:00,
2013-08-30 18:09:00,76.0,73.8,29.91,WSW,251,1.0,3.0,93,0.00,,,0.47,Wunderground v.1.15,2013-08-30 22:09:00,
2013-08-30 18:15:00,76.1,73.9,29.91,WSW,251,1.0,1.0,93,0.00,,,0.47,Wunderground v.1.15,2013-08-30 22:15:00,
2013-08-30 18:20:00,75.8,73.3,29.91,WSW,251,0.0,3.0,92,0.00,,,0.47,Wunderground v.1.15,2013-08-30 22:20:00,
2013-08-30 18:26:00,75.6,73.1,29.91,WSW,251,2.0,3.0,92,0.00,,,0.47,Wunderground v.1.15,2013-08-30 22:26:00,
2013-08-30 18:31:00,75.4,72.6,29.91,WSW,251,2.0,3.0,91,0.00,,,0.47,Wunderground v.1.15,2013-08-30 22:31:00,
2013-08-30 18:37:00,75.3,72.5,29.91,WSW,251,2.0,3.0,91,0.00,,,0.47,Wunderground v.1.15,2013-08-30 22:37:00,
2013-08-30 18:42:00,75.1,72.0,29.91,WSW,251,1.0,2.0,90,0.00,,,0.47,Wunderground v.1.15,2013-08-30 22:42:00,
2013-08-30 18:47:00,75.1,72.0,29.91,WSW,251,0.0,2.0,90,0.00,,,0.47,Wunderground v.1.15,2013-08-30 22:47:00,
2013-08-30 18:53:00,75.1,71.6,29.91,WSW,251,1.0,4.0,89,0.00,,,0.47,Wunderground v.1.15,2013-08-30 22:53:00,
2013-08-30 18:58:00,74.9,70.8,29.91,WSW,251,2.0,4.0,87,0.00,,,0.47,Wunderground v.1.15,2013-08-30 22:58:00,
2013-08-30 19:04:00,74.9,71.1,29.91,WSW,251,1.0,2.0,88,0.00,,,0.47,Wunderground v.1.15,2013-08-30 23:04:00,
2013-08-30 19:09:00,74.9,70.8,29.91,WSW,251,1.0,4.0,87,0.00,,,0.47,Wunderground v.1.15,2013-08-30 23:09:00,
2013-08-30 19:15:00,75.1,70.6,29.91,WSW,257,1.0,4.0,86,0.00,,,0.47,Wunderground v.1.15,2013-08-30 23:15:00,
2013-08-30 19:20:00,75.4,70.9,29.90,WSW,257,2.0,4.0,86,0.00,,,0.47,Wunderground v.1.15,2013-08-30 23:20:00,
2013-08-30 19:26:00,75.4,70.9,29.90,WSW,257,2.0,4.0,86,0.00,,,0.47,Wunderground v.1.15,2013-08-30 23:26:00,
2013-08-30 19:31:00,75.6,71.1,29.90,WSW,257,2.0,3.0,86,0.00,,,0.47,Wunderground v.1.15,2013-08-30 23:31:00,
2013-08-30 19:37:00,75.8,71.0,29.90,WSW,257,1.0,3.0,85,0.00,,,0.47,Wunderground v.1.15,2013-08-30 23:37:00,
2013-08-30 19:42:00,75.8,71.3,29.90,WSW,257,1.0,4.0,86,0.00,,,0.47,Wunderground v.1.15,2013-08-30 23:42:00,
2013-08-30 19:48:00,75.8,71.0,29.90,WSW,257,2.0,4.0,85,0.00,,,0.47,Wunderground v.1.15,2013-08-30 23:48:00,
2013-08-30 19:53:00,75.6,71.5,29.90,WSW,257,1.0,2.0,87,0.00,,,0.47,Wunderground v.1.15,2013-08-30 23:53:00,
2013-08-30 19:58:00,75.4,70.9,29.90,WSW,257,1.0,2.0,86,0.00,,,0.47,Wunderground v.1.15,2013-08-30 23:58:00,
2013-08-30 20:04:00,75.6,71.1,29.90,WSW,257,1.0,3.0,86,0.00,,,0.47,Wunderground v.1.15,2013-08-31 00:04:00,
2013-08-30 20:09:00,75.4,71.3,29.90,WSW,257,1.0,3.0,87,0.00,,,0.47,Wunderground v.1.15,2013-08-31 00:09:00,
2013-08-30 20:15:00,75.4,71.6,29.90,WSW,257,1.0,3.0,88,0.00,,,0.47,Wunderground v.1.15,2013-08-31 00:15:00,
2013-08-30 20:20:00,75.3,71.5,29.90,WSW,257,1.0,1.0,88,0.00,,,0.47,Wunderground v.1.15,2013-08-31 00:20:00,
2013-08-30 20:25:00,75.1,71.6,29.90,WSW,257,1.0,1.0,89,0.00,,,0.47,Wunderground v.1.15,2013-08-31 00:25:00,
2013-08-30 20:31:00,74.9,71.8,29.90,WSW,257,0.0,0.0,90,0.00,,,0.47,Wunderground v.1.15,2013-08-31 00:31:00,
2013-08-30 20:37:00,74.6,71.8,29.91,WSW,257,1.0,4.0,91,0.00,,,0.47,Wunderground v.1.15,2013-08-31 00:37:00,
2013-08-30 20:42:00,74.4,71.9,29.91,WSW,257,2.0,3.0,92,0.00,,,0.47,Wunderground v.1.15,2013-08-31 00:42:00,
2013-08-30 20:47:00,74.0,71.8,29.91,WSW,257,1.0,3.0,93,0.00,,,0.47,Wunderground v.1.15,2013-08-31 00:47:00,
2013-08-30 20:53:00,73.9,72.1,29.90,WSW,257,0.0,1.0,94,0.00,,,0.47,Wunderground v.1.15,2013-08-31 00:53:00,
2013-08-30 20:59:00,73.9,72.4,29.90,WSW,257,0.0,1.0,95,0.00,,,0.47,Wunderground v.1.15,2013-08-31 00:59:00,
2013-08-30 21:04:00,73.7,71.9,29.90,WSW,257,0.0,1.0,94,0.00,,,0.47,Wunderground v.1.15,2013-08-31 01:04:00,
2013-08-30 21:09:00,73.9,72.1,29.90,WSW,257,0.0,1.0,94,0.00,,,0.47,Wunderground v.1.15,2013-08-31 01:09:00,
2013-08-30 21:15:00,73.7,72.2,29.90,WSW,257,0.0,0.0,95,0.00,,,0.47,Wunderground v.1.15,2013-08-31 01:15:00,
2013-08-30 21:20:00,73.5,72.0,29.90,WSW,257,0.0,0.0,95,0.00,,,0.47,Wunderground v.1.15,2013-08-31 01:20:00,
2013-08-30 21:26:00,73.5,72.0,29.90,WSW,257,0.0,0.0,95,0.00,,,0.47,Wunderground v.1.15,2013-08-31 01:26:00,
2013-08-30 21:32:00,73.5,72.0,29.90,WSW,257,1.0,3.0,95,0.00,,,0.47,Wunderground v.1.15,2013-08-31 01:32:00,
2013-08-30 21:38:00,73.3,71.8,29.90,WSW,257,2.0,4.0,95,0.00,,,0.47,Wunderground v.1.15,2013-08-31 01:38:00,
2013-08-30 21:44:00,73.5,71.7,29.90,WSW,257,2.0,4.0,94,0.00,,,0.47,Wunderground v.1.15,2013-08-31 01:44:00,
2013-08-30 21:49:00,73.5,71.4,29.90,WSW,257,2.0,4.0,93,0.00,,,0.47,Wunderground v.1.15,2013-08-31 01:49:00,
2013-08-30 21:54:00,73.9,71.4,29.90,WSW,257,1.0,3.0,92,0.00,,,0.47,Wunderground v.1.15,2013-08-31 01:54:00,
2013-08-30 22:00:00,73.9,71.4,29.90,WSW,257,2.0,2.0,92,0.00,,,0.47,Wunderground v.1.15,2013-08-31 02:00:00,
2013-08-30 22:05:00,73.7,71.2,29.90,WSW,257,2.0,3.0,92,0.00,,,0.47,Wunderground v.1.15,2013-08-31 02:05:00,
2013-08-30 22:11:00,73.7,71.2,29.90,WSW,257,2.0,2.0,92,0.00,,,0.47,Wunderground v.1.15,2013-08-31 02:11:00,
2013-08-30 22:16:00,73.9,71.4,29.90,WSW,257,1.0,4.0,92,0.00,,,0.47,Wunderground v.1.15,2013-08-31 02:16:00,
2013-08-30 22:22:00,73.7,71.2,29.90,WSW,257,2.0,3.0,92,0.00,,,0.47,Wunderground v.1.15,2013-08-31 02:22:00,
2013-08-30 22:27:00,73.9,71.4,29.90,WSW,257,2.0,3.0,92,0.00,,,0.47,Wunderground v.1.15,2013-08-31 02:27:00,
2013-08-30 22:33:00,73.9,71.4,29.90,WSW,257,0.0,1.0,92,0.00,,,0.47,Wunderground v.1.15,2013-08-31 02:33:00,
2013-08-30 22:39:00,73.9,71.4,29.90,WSW,257,1.0,3.0,92,0.00,,,0.47,Wunderground v.1.15,2013-08-31 02:39:00,
2013-08-30 22:45:00,74.0,70.9,29.90,WSW,257,1.0,4.0,90,0.00,,,0.47,Wunderground v.1.15,2013-08-31 02:45:00,
2013-08-30 22:50:00,73.9,70.8,29.91,WSW,257,1.0,1.0,90,0.00,,,0.47,Wunderground v.1.15,2013-08-31 02:50:00,
2013-08-30 22:56:00,73.9,70.8,29.91,WSW,257,0.0,1.0,90,0.00,,,0.47,Wunderground v.1.15,2013-08-31 02:56:00,
2013-08-30 23:02:00,73.9,70.8,29.91,WSW,257,0.0,0.0,90,0.00,,,0.47,Wunderground v.1.15,2013-08-31 03:02:00,
2013-08-30 23:08:00,73.9,70.5,29.92,WSW,257,0.0,0.0,89,0.00,,,0.47,Wunderground v.1.15,2013-08-31 03:08:00,
2013-08-30 23:13:00,74.0,70.6,29.92,WSW,257,1.0,3.0,89,0.00,,,0.47,Wunderground v.1.15,2013-08-31 03:13:00,
2013-08-30 23:19:00,74.0,70.2,29.92,WSW,257,2.0,4.0,88,0.00,,,0.47,Wunderground v.1.15,2013-08-31 03:19:00,
2013-08-30 23:24:00,74.0,70.2,29.91,WSW,257,3.0,3.0,88,0.00,,,0.47,Wunderground v.1.15,2013-08-31 03:24:00,
2013-08-30 23:30:00,73.9,70.1,29.91,WSW,257,2.0,4.0,88,0.00,,,0.47,Wunderground v.1.15,2013-08-31 03:30:00,
2013-08-30 23:35:00,73.9,70.1,29.90,WSW,257,2.0,4.0,88,0.00,,,0.47,Wunderground v.1.15,2013-08-31 03:35:00,
2013-08-30 23:41:00,74.2,70.1,29.90,WSW,257,2.0,2.0,87,0.00,,,0.47,Wunderground v.1.15,2013-08-31 03:41:00,
2013-08-30 23:46:00,74.4,69.9,29.90,WSW,257,2.0,4.0,86,0.00,,,0.47,Wunderground v.1.15,2013-08-31 03:46:00,
2013-08-30 23:52:00,74.6,70.1,29.90,WSW,257,1.0,2.0,86,0.00,,,0.47,Wunderground v.1.15,2013-08-31 03:52:00,
2013-08-30 23:57:00,74.6,70.1,29.90,WSW,257,1.0,2.0,86,0.00,,,0.47,Wunderground v.1.15,2013-08-31 03:57:00,